Location: *
(51.8167°N, 12.5000°E)
Time: 03:09:30
(UTC+00:00)

SL-16 R/B - Pass Details

Date: 16 September 2019
Orbit: 986 x 1006 km, 99.4° (Epoch: 20 October)

Event Time Altitude Azimuth Distance (km) Brightness Sun altitude
Exits shadow 23:19:08 29° 69° (ENE) 1,755 3.9 -35.6°
Maximum altitude 23:19:58 30° 55° (NE) 1,722 4.0 -35.6°
Drops below altitude 10° 23:25:13 10° 358° (N) 2,781 5.6 -35.6°
Sets 23:28:00 0° 348° (NNW) 3,738 6.5 -35.5°
